| time (UTC) | temp F | wind direction | speed MPH | gust MPH | rain 1hr in | rain 24hr in | rain mn in | humidity % | barometer mb |
| 20260503173614 | 52 | 293 | 5.0 | 6.0 | 0.00 | 0.00 | 0.00 | 44 | 1020.0 |
| 20260503173111 | 52 | 238 | 1.0 | 1.0 | 0.00 | 0.00 | 0.00 | 43 | 1020.0 |
| 20260503172608 | 52 | 314 | 8.0 | 10.0 | 0.00 | 0.00 | 0.00 | 45 | 1020.0 |
| 20260503172106 | 51 | 231 | 4.0 | 7.0 | 0.00 | 0.00 | 0.00 | 44 | 1019.9 |
| 20260503171601 | 51 | 177 | 4.0 | 6.0 | 0.00 | 0.00 | 0.00 | 47 | 1020.3 |
| 20260503171059 | 51 | 235 | 3.0 | 3.0 | 0.00 | 0.00 | 0.00 | 49 | 1020.1 |
| 20260503170555 | 51 | 241 | 3.0 | 5.0 | 0.00 | 0.00 | 0.00 | 48 | 1020.3 |
| 20260503150948 | 46 | 236 | 5.0 | 7.0 | 0.00 | 0.00 | 0.00 | 55 | 1021.2 |
| 20260503150444 | 46 | 213 | 2.0 | 3.0 | 0.00 | 0.00 | 0.00 | 54 | 1021.0 |
| 20260503131337 | 41 | 255 | 4.0 | 6.0 | 0.00 | 0.00 | 0.00 | 73 | 1021.2 |
| 20260503130835 | 41 | 240 | 4.0 | 6.0 | 0.00 | 0.00 | 0.00 | 73 | 1021.2 |
| 20260503130332 | 41 | 228 | 4.0 | 5.0 | 0.00 | 0.00 | 0.00 | 74 | 1021.2 |
| 20260503110726 | 34 | 195 | 1.0 | 1.0 | 0.00 | 0.00 | 0.00 | 91 | 1020.0 |
| 20260503110223 | 33 | 206 | 0.0 | 0.0 | 0.00 | 0.00 | 0.00 | 91 | 1020.3 |
| 20260503100149 | 34 | 219 | 0.0 | 0.0 | 0.00 | 0.00 | 0.00 | 90 | 1019.4 |
| 20260503090108 | 34 | 216 | 2.0 | 2.0 | 0.00 | 0.00 | 0.00 | 92 | 1019.3 |
| 20260503081544 | 34 | 223 | 0.0 | 1.0 | 0.00 | 0.00 | 0.00 | 92 | 1019.1 |
| 20260503081042 | 34 | 229 | 0.0 | 0.0 | 0.00 | 0.00 | 0.00 | 91 | 1019.3 |
| 20260503080537 | 34 | 240 | 0.0 | 0.0 | 0.00 | 0.00 | 0.00 | 91 | 1019.3 |
| 20260503072512 | 35 | 241 | 1.0 | 1.0 | 0.00 | 0.00 | 0.00 | 90 | 1018.9 |
| 20260503072008 | 35 | 241 | 0.0 | 1.0 | 0.00 | 0.00 | 0.00 | 90 | 1018.7 |
| 20260503071505 | 35 | 241 | 1.0 | 1.0 | 0.00 | 0.00 | 0.00 | 90 | 1018.7 |
| 20260503071001 | 35 | 241 | 0.0 | 1.0 | 0.00 | 0.00 | 0.00 | 90 | 1018.6 |
| 20260503070458 | 36 | 241 | 0.0 | 0.0 | 0.00 | 0.00 | 0.00 | 89 | 1018.8 |
| 20260503054917 | 37 | 241 | 0.0 | 1.0 | 0.00 | 0.00 | 0.00 | 87 | 1018.5 |
| 20260503054413 | 37 | 263 | 2.0 | 2.0 | 0.00 | 0.00 | 0.00 | 86 | 1018.6 |
| 20260503053911 | 37 | 241 | 1.0 | 1.0 | 0.00 | 0.00 | 0.00 | 86 | 1018.6 |
| 20260503053409 | 37 | 242 | 2.0 | 2.0 | 0.00 | 0.00 | 0.00 | 86 | 1018.7 |
| 20260503052905 | 37 | 241 | 1.0 | 1.0 | 0.00 | 0.00 | 0.00 | 86 | 1018.6 |
| 20260503052403 | 37 | 241 | 1.0 | 1.0 | 0.00 | 0.00 | 0.00 | 86 | 1018.7 |
| 20260503051858 | 37 | 241 | 0.0 | 1.0 | 0.00 | 0.00 | 0.00 | 86 | 1018.6 |
| 20260503051355 | 37 | 241 | 1.0 | 2.0 | 0.00 | 0.00 | 0.00 | 86 | 1018.7 |
| 20260503050852 | 37 | 241 | 0.0 | 0.0 | 0.00 | 0.00 | 0.00 | 86 | 1018.8 |
| 20260503050348 | 37 | 241 | 1.0 | 1.0 | 0.00 | 0.00 | 0.00 | 86 | 1018.7 |
| 20260503045846 | 37 | 241 | 0.0 | 0.0 | 0.00 | 0.00 | 0.00 | 85 | 1018.9 |
| 20260503045343 | 37 | 241 | 1.0 | 1.0 | 0.00 | 0.00 | 0.00 | 85 | 1019.1 |
| 20260503044839 | 38 | 243 | 1.0 | 2.0 | 0.00 | 0.00 | 0.00 | 85 | 1018.9 |
| 20260503044336 | 38 | 241 | 0.0 | 1.0 | 0.00 | 0.00 | 0.00 | 85 | 1018.8 |
| 20260503043833 | 38 | 241 | 1.0 | 1.0 | 0.00 | 0.00 | 0.00 | 85 | 1018.9 |
| 20260503043331 | 38 | 241 | 1.0 | 2.0 | 0.00 | 0.00 | 0.00 | 85 | 1018.7 |
| 20260503042827 | 38 | 241 | 1.0 | 1.0 | 0.00 | 0.00 | 0.00 | 85 | 1019.0 |
| 20260503042324 | 38 | 241 | 1.0 | 1.0 | 0.00 | 0.00 | 0.00 | 85 | 1018.8 |
| 20260503041819 | 38 | 241 | 1.0 | 1.0 | 0.00 | 0.00 | 0.00 | 84 | 1019.0 |
| 20260503041317 | 38 | 241 | 1.0 | 1.0 | 0.00 | 0.00 | 0.00 | 84 | 1018.7 |
| 20260503040815 | 38 | 242 | 1.0 | 2.0 | 0.00 | 0.00 | 0.00 | 84 | 1018.9 |
| 20260503040312 | 38 | 241 | 1.0 | 1.0 | 0.00 | 0.00 | 0.00 | 83 | 1018.8 |
| 20260503035809 | 38 | 242 | 1.0 | 1.0 | 0.00 | 0.00 | 0.00 | 83 | 1018.8 |
| 20260503035306 | 38 | 241 | 1.0 | 1.0 | 0.00 | 0.00 | 0.00 | 83 | 1018.7 |
| 20260503034803 | 38 | 242 | 1.0 | 1.0 | 0.00 | 0.00 | 0.00 | 83 | 1018.8 |
| 20260503034300 | 38 | 241 | 1.0 | 2.0 | 0.00 | 0.00 | 0.00 | 83 | 1019.0 |
| 20260503033758 | 38 | 242 | 2.0 | 2.0 | 0.00 | 0.00 | 0.00 | 83 | 1018.8 |
| 20260503033255 | 38 | 258 | 1.0 | 2.0 | 0.00 | 0.00 | 0.00 | 83 | 1018.9 |
| 20260503032753 | 38 | 270 | 2.0 | 2.0 | 0.00 | 0.00 | 0.00 | 83 | 1018.9 |
| 20260503032252 | 38 | 241 | 0.0 | 0.0 | 0.00 | 0.00 | 0.00 | 83 | 1018.8 |
| 20260503031748 | 38 | 241 | 0.0 | 0.0 | 0.00 | 0.00 | 0.00 | 82 | 1019.0 |
| 20260503031246 | 38 | 241 | 0.0 | 1.0 | 0.00 | 0.00 | 0.00 | 82 | 1018.9 |
| 20260503030742 | 38 | 241 | 1.0 | 1.0 | 0.00 | 0.00 | 0.00 | 82 | 1018.7 |
| 20260503030239 | 38 | 241 | 0.0 | 0.0 | 0.00 | 0.00 | 0.00 | 82 | 1018.8 |
| 20260503025736 | 38 | 241 | 1.0 | 1.0 | 0.00 | 0.00 | 0.00 | 81 | 1018.9 |
| 20260503025233 | 38 | 258 | 1.0 | 2.0 | 0.00 | 0.00 | 0.00 | 81 | 1019.0 |
| 20260503024730 | 38 | 241 | 0.0 | 1.0 | 0.00 | 0.00 | 0.00 | 80 | 1018.8 |
| 20260503024227 | 38 | 242 | 1.0 | 1.0 | 0.00 | 0.00 | 0.00 | 80 | 1018.9 |
| 20260503023724 | 38 | 241 | 1.0 | 2.0 | 0.00 | 0.00 | 0.00 | 80 | 1018.8 |
| 20260503023221 | 38 | 271 | 2.0 | 2.0 | 0.00 | 0.00 | 0.00 | 80 | 1018.9 |
| 20260503022717 | 38 | 265 | 3.0 | 3.0 | 0.00 | 0.00 | 0.00 | 79 | 1019.0 |
| 20260503022216 | 39 | 329 | 3.0 | 3.0 | 0.00 | 0.00 | 0.00 | 78 | 1019.1 |
| 20260503021713 | 39 | 268 | 3.0 | 3.0 | 0.00 | 0.00 | 0.00 | 78 | 1019.0 |
| 20260503021209 | 39 | 311 | 2.0 | 3.0 | 0.00 | 0.00 | 0.00 | 77 | 1019.0 |
| 20260503020707 | 39 | 244 | 3.0 | 3.0 | 0.00 | 0.00 | 0.00 | 77 | 1019.0 |
| 20260503020204 | 39 | 308 | 3.0 | 3.0 | 0.00 | 0.00 | 0.00 | 77 | 1019.1 |
| 20260503015701 | 39 | 18 | 4.0 | 5.0 | 0.00 | 0.00 | 0.00 | 77 | 1019.0 |
| 20260503015158 | 39 | 1 | 5.0 | 6.0 | 0.00 | 0.00 | 0.00 | 76 | 1019.0 |
| 20260503014654 | 39 | 348 | 7.0 | 8.0 | 0.00 | 0.00 | 0.00 | 77 | 1018.8 |
| 20260503014152 | 39 | 304 | 3.0 | 3.0 | 0.00 | 0.00 | 0.00 | 77 | 1018.8 |
| 20260503013649 | 39 | 15 | 1.0 | 3.0 | 0.00 | 0.00 | 0.00 | 77 | 1018.8 |
| 20260503013147 | 39 | 297 | 2.0 | 2.0 | 0.00 | 0.00 | 0.00 | 80 | 1018.7 |
| 20260503012644 | 39 | 10 | 3.0 | 5.0 | 0.00 | 0.00 | 0.00 | 80 | 1019.0 |
| 20260503012140 | 39 | 307 | 3.0 | 3.0 | 0.00 | 0.00 | 0.00 | 80 | 1018.9 |
| 20260503011637 | 40 | 340 | 4.0 | 6.0 | 0.00 | 0.00 | 0.00 | 80 | 1018.9 |
| 20260503011134 | 40 | 256 | 1.0 | 2.0 | 0.00 | 0.00 | 0.00 | 79 | 1018.9 |
| 20260503010630 | 40 | 244 | 1.0 | 2.0 | 0.00 | 0.00 | 0.00 | 78 | 1018.7 |
| 20260503010128 | 40 | 272 | 3.0 | 5.0 | 0.00 | 0.00 | 0.00 | 78 | 1018.6 |
| 20260503005625 | 40 | 304 | 3.0 | 3.0 | 0.00 | 0.00 | 0.00 | 78 | 1018.5 |
| 20260503005122 | 40 | 245 | 1.0 | 1.0 | 0.00 | 0.00 | 0.00 | 77 | 1018.6 |
| 20260503004618 | 40 | 302 | 2.0 | 2.0 | 0.00 | 0.00 | 0.00 | 77 | 1018.7 |
| 20260503004117 | 40 | 281 | 4.0 | 5.0 | 0.00 | 0.00 | 0.00 | 77 | 1018.6 |
| 20260503003613 | 40 | 335 | 4.0 | 5.0 | 0.00 | 0.00 | 0.00 | 77 | 1018.1 |
| 20260503003110 | 40 | 339 | 5.0 | 7.0 | 0.00 | 0.00 | 0.00 | 77 | 1018.4 |
| 20260503002607 | 40 | 331 | 3.0 | 3.0 | 0.00 | 0.00 | 0.00 | 77 | 1018.4 |
| 20260503002104 | 40 | 65 | 2.0 | 3.0 | 0.00 | 0.00 | 0.00 | 77 | 1018.2 |
| 20260503001600 | 41 | 5 | 7.0 | 8.0 | 0.00 | 0.00 | 0.00 | 77 | 1018.0 |
| 20260503001057 | 41 | 2 | 5.0 | 7.0 | 0.00 | 0.00 | 0.00 | 77 | 1018.1 |
| 20260503000555 | 41 | 40 | 4.0 | 5.0 | 0.00 | 0.00 | 0.00 | 76 | 1018.1 |
| 20260503000052 | 41 | 326 | 3.0 | 3.0 | 0.00 | 0.00 | 0.00 | 75 | 1017.8 |
| 20260502235548 | 41 | 353 | 5.0 | 5.0 | 0.00 | 0.00 | 0.00 | 75 | 1017.9 |
| 20260502235046 | 41 | 12 | 3.0 | 3.0 | 0.00 | 0.00 | 0.00 | 75 | 1017.9 |
| 20260502234542 | 41 | 264 | 2.0 | 3.0 | 0.00 | 0.00 | 0.00 | 74 | 1017.9 |
| 20260502234040 | 42 | 46 | 6.0 | 8.0 | 0.00 | 0.00 | 0.00 | 73 | 1017.7 |
| 20260502233540 | 42 | 327 | 10.0 | 13.0 | 0.00 | 0.00 | 0.00 | 74 | 1017.8 |
| 20260502233037 | 42 | 6 | 6.0 | 7.0 | 0.00 | 0.00 | 0.00 | 73 | 1017.8 |
| 20260502232533 | 42 | 335 | 6.0 | 9.0 | 0.00 | 0.00 | 0.00 | 73 | 1017.5 |
| 20260502232031 | 43 | 358 | 4.0 | 5.0 | 0.00 | 0.00 | 0.00 | 74 | 1017.6 |
| 20260502231528 | 43 | 356 | 5.0 | 7.0 | 0.00 | 0.00 | 0.00 | 74 | 1017.5 |
| 20260502231025 | 43 | 341 | 4.0 | 5.0 | 0.00 | 0.00 | 0.00 | 72 | 1017.4 |
| 20260502230524 | 43 | 310 | 5.0 | 7.0 | 0.00 | 0.00 | 0.00 | 71 | 1017.3 |
| 20260502230022 | 44 | 282 | 7.0 | 10.0 | 0.00 | 0.00 | 0.00 | 69 | 1017.4 |
| 20260502225517 | 44 | 1 | 4.0 | 5.0 | 0.00 | 0.00 | 0.00 | 69 | 1017.1 |
| 20260502225014 | 44 | 350 | 8.0 | 11.0 | 0.00 | 0.00 | 0.00 | 70 | 1017.1 |
| 20260502224510 | 44 | 87 | 4.0 | 5.0 | 0.00 | 0.00 | 0.00 | 70 | 1017.1 |
| 20260502224008 | 44 | 60 | 4.0 | 6.0 | 0.00 | 0.00 | 0.00 | 70 | 1017.1 |
| 20260502223505 | 44 | 24 | 4.0 | 5.0 | 0.00 | 0.00 | 0.00 | 70 | 1017.1 |
| 20260502223003 | 44 | 70 | 2.0 | 5.0 | 0.00 | 0.00 | 0.00 | 70 | 1017.5 |
| 20260502222500 | 44 | 345 | 5.0 | 6.0 | 0.00 | 0.00 | 0.00 | 69 | 1017.0 |
| 20260502221956 | 44 | 332 | 5.0 | 5.0 | 0.00 | 0.00 | 0.00 | 69 | 1017.1 |
| 20260502221452 | 44 | 25 | 8.0 | 9.0 | 0.00 | 0.00 | 0.00 | 68 | 1017.1 |
| 20260502220949 | 45 | 16 | 4.0 | 6.0 | 0.00 | 0.00 | 0.00 | 65 | 1017.0 |
| 20260502220445 | 46 | 315 | 7.0 | 9.0 | 0.00 | 0.00 | 0.00 | 59 | 1016.7 |
| 20260502215942 | 46 | 353 | 5.0 | 7.0 | 0.00 | 0.00 | 0.00 | 56 | 1016.7 |
| 20260502215439 | 46 | 240 | 3.0 | 3.0 | 0.00 | 0.00 | 0.00 | 57 | 1016.8 |
| 20260502214936 | 46 | 260 | 3.0 | 3.0 | 0.00 | 0.00 | 0.00 | 56 | 1016.7 |
| 20260502214433 | 47 | 301 | 6.0 | 7.0 | 0.00 | 0.00 | 0.00 | 56 | 1016.6 |
| 20260502213930 | 46 | 281 | 6.0 | 7.0 | 0.00 | 0.00 | 0.00 | 57 | 1016.6 |
| 20260502213427 | 47 | 345 | 5.0 | 6.0 | 0.00 | 0.00 | 0.00 | 56 | 1016.6 |
| 20260502212926 | 47 | 358 | 5.0 | 8.0 | 0.00 | 0.00 | 0.00 | 56 | 1016.7 |
| 20260502212424 | 47 | 326 | 7.0 | 8.0 | 0.00 | 0.00 | 0.00 | 54 | 1016.5 |
| 20260502211921 | 47 | 324 | 5.0 | 6.0 | 0.00 | 0.00 | 0.00 | 55 | 1016.5 |
| 20260502211416 | 47 | 239 | 1.0 | 2.0 | 0.00 | 0.00 | 0.00 | 55 | 1016.1 |
| 20260502210914 | 47 | 340 | 5.0 | 7.0 | 0.00 | 0.00 | 0.00 | 57 | 1016.3 |
| 20260502210411 | 47 | 8 | 5.0 | 7.0 | 0.00 | 0.00 | 0.00 | 56 | 1016.5 |
| 20260502205908 | 47 | 251 | 4.0 | 5.0 | 0.00 | 0.00 | 0.00 | 54 | 1016.3 |
| 20260502205404 | 47 | 331 | 3.0 | 7.0 | 0.00 | 0.00 | 0.00 | 53 | 1016.4 |
| 20260502204901 | 47 | 12 | 9.0 | 10.0 | 0.00 | 0.00 | 0.00 | 52 | 1016.3 |
| 20260502204358 | 47 | 336 | 7.0 | 9.0 | 0.00 | 0.00 | 0.00 | 52 | 1016.4 |
| 20260502203856 | 48 | 11 | 5.0 | 8.0 | 0.00 | 0.00 | 0.00 | 53 | 1016.1 |
| 20260502203354 | 47 | 5 | 7.0 | 8.0 | 0.00 | 0.00 | 0.00 | 50 | 1016.5 |
| 20260502202849 | 48 | 317 | 4.0 | 5.0 | 0.00 | 0.00 | 0.00 | 51 | 1016.4 |
| 20260502202346 | 47 | 284 | 2.0 | 2.0 | 0.00 | 0.00 | 0.00 | 53 | 1016.4 |
| 20260502201844 | 48 | 341 | 5.0 | 7.0 | 0.00 | 0.00 | 0.00 | 54 | 1016.5 |
| 20260502201340 | 48 | 277 | 4.0 | 5.0 | 0.00 | 0.00 | 0.00 | 55 | 1016.6 |
| 20260502200836 | 48 | 345 | 3.0 | 5.0 | 0.00 | 0.00 | 0.00 | 55 | 1016.6 |
| 20260502200332 | 48 | 354 | 4.0 | 5.0 | 0.00 | 0.00 | 0.00 | 54 | 1016.4 |
| 20260502195831 | 48 | 280 | 3.0 | 5.0 | 0.00 | 0.00 | 0.00 | 53 | 1016.7 |
| 20260502195327 | 49 | 333 | 6.0 | 7.0 | 0.00 | 0.00 | 0.00 | 52 | 1016.5 |
| 20260502194824 | 48 | 275 | 4.0 | 6.0 | 0.00 | 0.00 | 0.00 | 53 | 1016.6 |
| 20260502194321 | 49 | 332 | 9.0 | 11.0 | 0.00 | 0.00 | 0.00 | 51 | 1016.8 |
| 20260502193816 | 48 | 3 | 4.0 | 5.0 | 0.00 | 0.00 | 0.00 | 53 | 1016.6 |
| 20260502193314 | 47 | 328 | 5.0 | 7.0 | 0.00 | 0.00 | 0.00 | 53 | 1016.9 |
| 20260502192814 | 47 | 347 | 5.0 | 6.0 | 0.00 | 0.00 | 0.00 | 52 | 1016.7 |
| 20260502192312 | 47 | 239 | 3.0 | 3.0 | 0.00 | 0.00 | 0.00 | 53 | 1016.8 |
| 20260502191809 | 47 | 328 | 6.0 | 8.0 | 0.00 | 0.00 | 0.00 | 53 | 1017.0 |
| 20260502191307 | 47 | 338 | 6.0 | 7.0 | 0.00 | 0.00 | 0.00 | 52 | 1016.9 |
| 20260502190804 | 47 | 327 | 4.0 | 6.0 | 0.00 | 0.00 | 0.00 | 54 | 1016.9 |
| 20260502190301 | 47 | 266 | 7.0 | 10.0 | 0.00 | 0.00 | 0.00 | 52 | 1017.1 |
| 20260502185756 | 48 | 288 | 5.0 | 7.0 | 0.00 | 0.00 | 0.00 | 51 | 1016.9 |
| 20260502185252 | 48 | 343 | 5.0 | 6.0 | 0.00 | 0.00 | 0.00 | 51 | 1017.1 |
| 20260502184749 | 48 | 358 | 5.0 | 6.0 | 0.00 | 0.00 | 0.00 | 52 | 1017.1 |
| 20260502184245 | 49 | 303 | 10.0 | 13.0 | 0.00 | 0.00 | 0.00 | 53 | 1017.1 |
| 20260502183742 | 50 | 353 | 6.0 | 9.0 | 0.00 | 0.00 | 0.00 | 53 | 1017.0 |
| 20260502183238 | 48 | 289 | 2.0 | 2.0 | 0.00 | 0.00 | 0.00 | 53 | 1017.2 |
| 20260502182733 | 48 | 310 | 4.0 | 6.0 | 0.00 | 0.00 | 0.00 | 53 | 1017.3 |
| 20260502182229 | 48 | 301 | 3.0 | 5.0 | 0.00 | 0.00 | 0.00 | 55 | 1017.3 |
| 20260502181726 | 47 | 299 | 6.0 | 7.0 | 0.00 | 0.00 | 0.00 | 55 | 1017.2 |
| 20260502181225 | 48 | 10 | 6.0 | 7.0 | 0.00 | 0.00 | 0.00 | 54 | 1017.3 |
| 20260502180722 | 47 | 236 | 2.0 | 2.0 | 0.00 | 0.00 | 0.00 | 57 | 1017.4 |
| 20260502180220 | 47 | 256 | 7.0 | 8.0 | 0.00 | 0.00 | 0.00 | 55 | 1017.4 |